User: anonymous   Login
Location: Muenchen
(48.1800°N, 11.5800°E)
Time: 05:55:49
(UTC+01:00)
Language:

Iridium 37 - Orbit

View from above orbital plane
View from above orbital plane
View from above satellite
View from above satellite

Ground track
Ground track

The orbit data is extracted from the following two-line orbital elements,

1 24968U 97056D   14355.51442278  .00000581  00000-0  20050-3 0   846
2 24968 086.3965 338.6767 0002203 106.0222 254.1217 14.34216775902292
Epoch (UTC): 21 December 2014 12:20:46
Eccentricity: 0.0002203
inclination: 86.3965°
perigee height: 776 km
apogee height: 779 km
right ascension of ascending node: 338.6767°
argument of perigee: 106.0222°
revolutions per day: 14.34216775
mean anomaly at epoch: 254.1217°
orbit number at epoch: 90229

The dashed part of the orbit path shows where the satellite is in the earth's shadow,  

DLR